小惑星A/2019 O2

A/2019 O2

English version
Home page
Updated on July 8, 2020

---------------------------------------------------------------------

・ プロフィール

発見日 2019年7月24日
発見光度 20.5等
発見者 Pan-STARRS 1 telescope (Haleakala)

・ 軌道要素

Epoch 2023 Apr. 6.0 TT = JDT 2460040.5
T 2023 Apr. 7.27647 TT                                  Rudenko
q   9.6824024            (2000.0)            P               Q
z  +0.0172655      Peri.  129.64433     -0.39158932     -0.54007745
 +/-0.0000000      Node    48.26302     -0.76972793     -0.25133285
e   0.8328281      Incl.   93.30722     +0.50415942     -0.80321115
H    9.5
From 75 observations 2019 July 24-2020 May 28, mean residual 0".5.

・ 光度変化

        H = 9.2  G = 0.15

---------------------------------------------------------------------

軌道要素はM.P.E.C. 2020-L06に掲載されたものです。
光度グラフはComet for Windowsで作成したものです。

---------------------------------------------------------------------

Copyright(C) Seiichi Yoshida (comet@aerith.net). All rights reserved.